Temp
70 68 67 66 57 53 49 54 58 59 62 64 62 62 63 65 62 61 64 65 66 69 70 74 74 76 76 76 76 75 76 77 77 77 76 75 75 74 74 74 74 75 75 74 74 72 71 71 71
68 70 65 58 51 47 49 54 56 60 63 62 63 63 64 65 65 66 64 65 66 69 70 72 72 75 75 75 75 75 76 77 77 76 75 75 75 73 73 73 73 73 73 73 72 71 70 70 70
69 67 61 52 46 47 50 56 60 62 61 63 63 64 66 67 66 65 65 65 65 68 69 70 71 74 75 75 75 75 75 76 75 75 76 76 74 73 72 72 72 72 72 72 71 71 70 70 69
66 63 58 52 48 52 54 59 60 61 61 61 63 63 66 67 67 66 65 64 65 66 68 69 71 74 74 74 75 76 76 77 76 76 75 73 72 72 71 71 71 71 71 71 70 70 69 68 68
60 57 50 47 48 53 55 58 60 60 61 62 62 63 63 66 62 62 62 63 64 64 66 68 71 73 73 75 76 76 75 74 74 73 72 72 71 71 70 70 70 70 70 70 70 69 68 67 67
57 55 48 46 49 53 56 59 60 59 60 61 60 61 64 62 61 62 60 62 64 64 64 66 67 69 71 73 73 73 74 74 73 72 72 71 70 70 70 69 69 69 69 69 68 67 67 66 65
55 51 47 46 48 51 58 58 59 60 60 62 63 61 66 65 61 58 59 61 62 63 62 64 67 68 67 69 70 72 72 72 72 71 71 70 69 69 69 68 69 69 69 68 67 66 65 65 64
54 53 47 46 48 52 58 58 60 60 63 62 64 62 64 64 56 56 57 59 59 60 62 62 64 66 68 68 67 68 69 69 69 69 68 66 66 66 66 65 68 68 67 66 65 65 64 63 62
57 49 45 49 48 55 58 58 60 61 61 60 62 63 63 54 53 54 55 55 56 57 58 60 61 63 64 64 64 65 65 66 66 66 64 62 63 63 63 62 66 66 65 65 64 62 60 59 58
54 46 49 54 53 56 58 58 60 59 59 59 60 62 56 53 53 54 54 56 55 56 57 58 59 60 60 61 63 64 63 65 64 62 60 59 58 59 59 61 63 64 63 63 62 59 56 53 55
51 50 52 56 56 57 56 55 60 58 55 59 61 64 57 53 52 53 55 57 58 59 58 57 57 58 58 60 59 60 60 60 59 58 56 55 55 57 57 57 56 56 53 55 54 53 53 52 53
50 53 53 56 57 55 55 56 56 57 66 65 63 64 59 55 54 54 55 57 56 55 57 57 56 56 56 57 58 58 57 56 56 55 53 53 52 53 53 53 52 51 51 50 50 51 50 50 50
49 51 55 54 55 54 53 55 55 55 63 61 60 58 59 57 56 56 58 58 56 55 56 56 56 56 56 55 56 55 56 55 55 53 52 52 52 51 50 50 49 49 49 50 49 50 50 49 49
52 51 53 54 54 53 53 57 54 58 59 60 57 59 57 56 59 57 53 56 54 57 57 56 55 56 55 55 54 55 55 54 52 52 51 50 51 50 49 48 48 48 49 48 49 49 49 49 49
51 50 51 51 51 52 51 51 48 61 55 57 57 57 56 57 56 57 62 58 58 58 58 54 55 55 54 55 54 54 53 51 52 51 49 50 49 49 48 47 46 47 47 47 47 47 47 48 48
47 45 43 51 49 51 54 47 58 59 55 60 60 59 57 60 59 60 60 60 60 59 56 56 56 54 54 55 54 54 52 51 52 50 50 49 49 49 47 47 46 46 46 46 47 46 46 47 48
41 39 39 45 51 49 49 46 55 55 53 56 59 63 65 64 62 60 59 60 58 59 58 55 55 55 53 54 54 53 51 51 51 50 50 48 48 48 48 47 46 45 44 45 46 45 47 47 46
40 37 38 40 51 45 44 44 52 58 52 56 60 61 62 62 64 66 64 58 58 58 58 57 54 55 53 54 53 51 50 51 50 49 49 48 48 47 47 46 45 44 43 44 44 45 43 46 46
42 40 39 43 51 44 48 48 51 55 55 55 58 60 61 61 65 64 62 61 56 54 54 54 52 54 52 51 49 48 47 48 48 49 49 47 49 46 47 46 44 43 44 44 44 43 43 42 43
41 38 39 44 48 43 44 46 53 55 56 58 58 59 60 60 61 60 59 58 55 56 53 54 53 53 52 53 53 53 52 51 50 48 47 48 47 47 47 45 44 43 43 41 42 42 41 43 41
39 38 41 40 42 42 39 42 43 50 51 55 56 58 57 58 58 60 57 59 56 54 52 52 53 53 53 53 52 43 45 43 44 44 44 45 46 46 46 45 44 43 43 42 42 42 42 41 39
37 44 43 40 37 34 42 34 41 50 52 51 57 55 56 58 56 55 55 55 56 55 53 52 52 52 51 52 50 48 50 47 48 49 47 45 45 45 45 44 44 43 43 42 41 42 44 43 41
42 43 40 38 35 33 33 31 40 45 46 51 51 54 56 57 54 55 55 54 54 52 52 50 50 49 50 49 52 49 50 52 47 49 45 44 44 45 44 43 43 42 42 43 42 40 41 42 42
43 40 36 33 33 27 35 35 47 41 46 48 52 55 56 61 53 53 53 52 51 50 49 48 47 48 47 48 50 48 49 50 44 44 43 42 43 43 42 42 42 43 42 41 40 42 41 41 41
40 36 30 27 24 33 35 33 47 48 49 54 55 54 56 53 52 52 51 52 52 52 46 46 45 45 45 46 48 48 48 49 44 43 44 41 42 41 40 41 40 41 42 41 41 40 40 40 41
38 40 32 24 29 35 32 30 46 52 50 50 51 51 50 51 50 51 51 50 49 47 46 45 43 42 43 43 45 47 46 48 46 45 45 43 43 43 43 41 42 42 40 40 40 40 40 39 40
35 34 41 35 30 26 38 39 49 52 50 49 50 49 51 51 50 49 49 47 46 46 45 43 42 42 42 42 43 43 44 46 45 44 45 44 44 44 43 41 40 40 39 39 38 38 37 37 39
40 40 32 28 23 23 33 36 39 48 46 48 46 46 47 43 42 42 43 43 43 44 44 45 43 42 41 41 41 42 42 43 43 40 40 41 42 42 40 39 40 39 38 37 37 38 37 36 36
36 34 34 34 34 27 25 33 50 46 45 41 36 38 38 39 39 40 41 42 42 43 43 43 43 42 42 41 40 40 40 41 41 39 40 40 40 40 38 39 39 37 37 37 36 37 36 35 35
39 39 39 32 30 33 33 33 48 44 44 44 38 39 38 37 38 39 40 41 41 41 42 42 41 41 41 42 40 40 39 38 38 39 39 38 38 39 39 39 38 37 37 36 36 35 35 35 33
MSLP
1016.64 1016.72 1016.85 1017.24 1018.81 1019.55 1019.20 1018.40 1017.84 1017.40 1017.15 1016.87 1016.91 1017.16 1017.08 1016.88 1017.01 1017.11 1016.68 1016.76 1016.72 1016.81 1017.12 1017.23 1017.44 1017.67 1017.99 1018.28 1018.55 1018.76 1018.96 1019.13 1019.38 1019.65 1019.82 1020.13 1020.41 1020.72 1020.95 1021.07 1021.03 1021.05 1021.23 1021.40 1021.59 1021.82 1021.87 1021.86 1021.78
1016.66 1016.72 1017.25 1018.32 1019.35 1019.99 1019.30 1018.33 1017.85 1017.28 1017.04 1017.05 1017.05 1016.95 1016.88 1016.46 1016.29 1016.21 1016.46 1016.64 1016.76 1016.61 1016.98 1017.19 1017.35 1017.58 1017.88 1018.17 1018.47 1018.68 1018.88 1019.05 1019.39 1019.74 1019.96 1020.16 1020.64 1020.95 1021.01 1021.17 1021.25 1021.27 1021.49 1021.56 1021.65 1021.87 1021.97 1021.96 1021.99
1016.55 1016.92 1018.09 1019.18 1020.20 1020.04 1019.09 1017.96 1017.45 1017.07 1016.91 1016.91 1016.96 1016.83 1016.64 1016.18 1016.16 1016.15 1016.24 1016.53 1016.82 1016.84 1016.99 1017.15 1017.34 1017.55 1017.84 1018.14 1018.44 1018.73 1018.88 1019.12 1019.42 1019.71 1020.01 1020.38 1020.80 1021.12 1021.28 1021.33 1021.47 1021.48 1021.66 1021.72 1021.89 1022.04 1022.13 1022.22 1022.20
1016.95 1017.78 1019.49 1019.71 1020.12 1019.52 1018.71 1017.59 1017.33 1017.01 1016.86 1016.89 1016.83 1016.85 1016.52 1015.79 1016.03 1016.23 1016.40 1016.70 1016.99 1017.08 1017.20 1017.29 1017.35 1017.57 1017.85 1018.13 1018.30 1018.53 1018.85 1019.13 1019.46 1019.87 1020.24 1020.64 1020.99 1021.26 1021.48 1021.61 1021.72 1021.79 1021.95 1022.04 1022.16 1022.28 1022.35 1022.50 1022.48
1017.81 1018.79 1019.70 1020.19 1019.93 1018.96 1018.16 1017.47 1017.27 1016.98 1016.85 1016.85 1016.84 1016.63 1016.45 1015.80 1016.23 1016.38 1016.56 1016.87 1017.05 1017.32 1017.54 1017.64 1017.60 1017.63 1017.85 1017.99 1018.34 1018.80 1019.11 1019.48 1019.82 1020.15 1020.48 1020.75 1021.09 1021.37 1021.52 1021.76 1021.78 1021.94 1022.11 1022.16 1022.36 1022.45 1022.72 1022.78 1022.83
1018.62 1019.52 1020.34 1020.43 1019.64 1018.67 1017.84 1017.29 1017.10 1016.96 1016.81 1016.88 1016.94 1016.73 1016.16 1015.84 1016.26 1016.38 1016.69 1016.84 1017.02 1017.29 1017.65 1017.85 1017.86 1017.92 1018.02 1018.08 1018.52 1018.88 1019.14 1019.44 1019.76 1020.17 1020.54 1020.88 1021.24 1021.52 1021.60 1021.76 1021.87 1022.02 1022.20 1022.31 1022.49 1022.76 1022.90 1022.89 1023.01
1018.71 1019.86 1020.36 1020.17 1019.56 1018.56 1017.40 1017.02 1016.82 1016.63 1016.57 1016.40 1016.37 1016.64 1015.96 1016.00 1016.25 1016.71 1016.95 1017.12 1017.21 1017.35 1017.54 1017.63 1017.74 1017.94 1018.18 1018.40 1018.67 1018.85 1019.07 1019.36 1019.72 1020.17 1020.52 1020.88 1021.28 1021.53 1021.71 1021.86 1022.03 1022.17 1022.40 1022.67 1022.82 1022.96 1023.13 1023.13 1023.29
1018.88 1019.79 1020.32 1019.94 1019.35 1018.17 1017.03 1016.73 1016.31 1016.46 1016.10 1016.26 1016.33 1016.34 1016.00 1016.07 1016.57 1016.91 1017.19 1017.38 1017.53 1017.60 1017.59 1017.58 1017.59 1017.69 1017.88 1018.22 1018.72 1019.01 1019.24 1019.43 1019.77 1020.16 1020.55 1020.95 1021.26 1021.53 1021.76 1022.02 1022.14 1022.40 1022.69 1022.99 1023.21 1023.29 1023.41 1023.56 1023.67
1019.04 1019.93 1020.17 1019.40 1018.98 1017.44 1016.69 1016.51 1016.23 1015.95 1016.03 1016.05 1015.87 1015.76 1015.62 1016.31 1017.01 1017.23 1017.50 1017.63 1017.62 1017.57 1017.50 1017.63 1017.72 1017.73 1017.79 1018.12 1018.42 1018.83 1019.20 1019.42 1019.90 1020.30 1020.63 1021.09 1021.49 1021.68 1021.89 1022.13 1022.27 1022.51 1022.76 1023.06 1023.34 1023.58 1023.83 1023.90 1023.84
1019.03 1019.85 1019.11 1017.97 1017.55 1016.96 1016.42 1016.31 1016.03 1016.11 1015.82 1015.66 1015.39 1015.20 1015.66 1016.42 1016.89 1016.99 1017.06 1016.89 1017.02 1017.08 1017.19 1017.43 1017.52 1017.73 1018.07 1018.29 1018.48 1018.66 1018.98 1019.28 1019.75 1020.32 1020.85 1021.26 1021.66 1021.97 1022.21 1022.22 1022.35 1022.62 1022.91 1023.15 1023.35 1023.74 1024.07 1024.08 1024.21
1018.91 1018.87 1017.99 1017.29 1016.96 1016.67 1016.33 1016.08 1015.75 1015.74 1015.08 1014.59 1014.56 1014.62 1015.19 1015.84 1016.36 1016.49 1016.20 1015.87 1015.43 1015.89 1016.56 1016.75 1017.14 1017.50 1017.80 1018.03 1018.44 1018.81 1019.07 1019.33 1019.67 1020.14 1020.69 1021.31 1021.81 1022.03 1022.20 1022.43 1022.76 1023.08 1023.42 1023.62 1023.94 1024.02 1024.22 1024.37 1024.40
1018.90 1017.89 1017.65 1017.01 1016.66 1016.63 1016.32 1015.85 1015.71 1015.45 1013.33 1013.02 1013.56 1013.86 1014.37 1014.84 1015.28 1015.20 1015.16 1014.90 1015.21 1015.35 1015.34 1015.84 1016.33 1016.75 1017.20 1017.70 1018.04 1018.37 1018.83 1019.35 1019.78 1020.16 1020.60 1021.05 1021.63 1022.09 1022.35 1022.58 1022.98 1023.38 1023.72 1023.98 1024.26 1024.39 1024.51 1024.52 1024.63
1018.45 1017.65 1017.32 1016.95 1016.87 1016.55 1016.36 1015.46 1015.79 1014.46 1012.90 1013.23 1013.37 1013.73 1013.69 1013.90 1014.01 1014.05 1014.04 1014.35 1014.68 1014.93 1015.01 1015.31 1015.87 1016.17 1016.64 1017.18 1017.55 1018.06 1018.32 1018.66 1019.16 1019.92 1020.51 1020.96 1021.36 1021.74 1022.23 1022.65 1023.01 1023.35 1023.60 1023.81 1024.18 1024.44 1024.58 1024.64 1024.78
1017.48 1017.39 1017.15 1016.73 1016.42 1016.38 1016.24 1015.20 1015.36 1013.07 1012.88 1012.82 1013.08 1012.63 1012.72 1012.99 1012.88 1013.32 1013.49 1013.21 1013.57 1013.77 1014.10 1014.99 1015.36 1015.65 1016.13 1016.47 1016.93 1017.27 1017.80 1018.26 1018.93 1019.41 1019.74 1020.37 1020.90 1021.50 1021.95 1022.43 1022.84 1023.28 1023.53 1023.80 1024.05 1024.23 1024.49 1024.70 1024.91
1017.39 1017.54 1016.88 1016.05 1015.64 1015.79 1015.75 1015.52 1014.39 1012.54 1013.00 1012.55 1012.28 1012.00 1011.73 1011.72 1012.05 1011.90 1011.51 1011.95 1012.24 1012.47 1013.17 1013.57 1014.18 1014.83 1015.20 1015.53 1016.09 1016.45 1016.84 1017.68 1018.25 1018.53 1019.01 1019.63 1020.28 1020.83 1021.43 1022.08 1022.57 1022.80 1023.27 1023.80 1024.19 1024.45 1024.53 1024.69 1024.99
1017.89 1018.06 1017.46 1015.43 1015.67 1015.32 1015.52 1014.45 1012.95 1012.46 1012.67 1012.26 1011.46 1011.11 1010.93 1010.35 1010.32 1010.18 1010.46 1010.74 1011.21 1011.70 1011.87 1012.42 1012.95 1013.51 1014.26 1014.67 1015.14 1015.57 1016.20 1016.79 1017.14 1017.69 1018.46 1018.87 1019.19 1019.79 1020.64 1021.37 1021.98 1022.55 1023.06 1023.45 1023.84 1024.18 1024.41 1024.72 1024.80
1018.55 1018.22 1017.81 1016.69 1015.35 1015.56 1015.55 1014.23 1012.93 1012.75 1012.68 1011.79 1010.84 1010.08 1009.76 1009.31 1008.87 1009.06 1009.66 1009.79 1010.10 1010.30 1010.83 1011.40 1012.01 1012.30 1012.78 1013.71 1014.37 1014.81 1015.31 1015.54 1016.08 1016.79 1017.13 1017.74 1018.59 1018.95 1019.54 1020.22 1021.01 1021.91 1022.58 1023.11 1023.44 1023.94 1024.10 1024.51 1024.64
1018.30 1018.41 1017.97 1017.42 1015.59 1015.56 1015.40 1014.22 1013.42 1012.14 1012.58 1011.02 1009.98 1008.97 1009.01 1008.81 1007.60 1008.38 1008.27 1008.51 1008.70 1009.11 1009.74 1010.27 1010.97 1011.36 1012.09 1012.75 1013.51 1014.14 1014.79 1015.37 1015.66 1015.89 1016.93 1017.31 1017.27 1018.35 1018.87 1019.46 1020.13 1020.99 1021.81 1022.46 1022.92 1023.31 1024.01 1024.17 1024.37
1017.79 1017.94 1017.84 1016.82 1015.92 1015.66 1014.64 1013.60 1013.05 1011.89 1011.25 1009.96 1008.83 1008.28 1008.24 1008.33 1007.59 1007.57 1007.75 1007.95 1008.27 1008.61 1008.96 1009.55 1010.25 1010.54 1011.51 1012.13 1012.68 1013.46 1013.34 1014.09 1014.67 1015.25 1015.19 1016.30 1017.20 1017.37 1018.18 1018.91 1019.62 1020.22 1020.72 1021.26 1022.10 1022.83 1023.37 1024.02 1024.40
1017.93 1018.06 1017.52 1016.44 1015.31 1015.76 1014.22 1012.04 1011.64 1010.56 1009.77 1008.77 1008.78 1008.28 1008.08 1007.95 1007.82 1007.46 1007.61 1007.89 1007.92 1007.53 1007.86 1008.29 1008.68 1009.64 1010.17 1010.76 1011.20 1011.77 1012.22 1013.05 1013.45 1014.28 1015.08 1015.35 1016.25 1017.22 1017.54 1018.20 1018.99 1019.54 1020.01 1020.70 1021.28 1021.65 1022.77 1023.53 1024.00
1017.72 1017.84 1017.13 1016.71 1016.16 1015.54 1014.51 1011.25 1010.37 1009.26 1008.69 1008.15 1008.07 1007.69 1008.50 1008.13 1007.90 1007.42 1007.89 1007.99 1007.84 1007.79 1007.56 1007.44 1007.46 1007.91 1008.60 1009.47 1010.65 1011.59 1012.06 1012.67 1012.93 1013.08 1013.73 1014.14 1014.72 1015.81 1016.51 1017.22 1018.16 1019.01 1019.44 1019.78 1020.29 1020.86 1021.29 1022.19 1023.32
1017.53 1016.15 1016.75 1017.05 1017.36 1016.78 1015.47 1011.44 1009.93 1008.84 1008.50 1008.13 1007.00 1008.14 1007.98 1007.63 1007.72 1007.94 1007.99 1007.95 1007.72 1007.35 1007.03 1007.40 1007.67 1007.86 1008.18 1008.67 1009.40 1009.85 1010.24 1010.93 1010.36 1010.34 1011.59 1012.70 1013.37 1014.08 1015.15 1015.79 1016.61 1017.81 1018.68 1019.17 1019.40 1019.96 1020.40 1020.89 1021.74
1016.47 1016.16 1016.77 1017.06 1017.41 1017.14 1016.11 1014.96 1009.81 1008.82 1008.45 1007.58 1007.78 1007.65 1007.61 1007.70 1007.50 1007.83 1008.11 1007.76 1007.26 1006.93 1006.80 1006.91 1006.87 1006.99 1007.52 1008.32 1008.55 1009.15 1009.20 1009.31 1010.00 1010.72 1011.64 1012.53 1012.94 1013.12 1013.62 1014.86 1015.33 1016.05 1017.09 1018.25 1018.87 1019.52 1019.73 1019.96 1020.40
1016.20 1016.70 1017.21 1017.74 1017.83 1016.82 1015.31 1014.29 1006.58 1008.40 1007.88 1007.94 1007.75 1007.89 1007.69 1007.64 1007.86 1008.24 1008.41 1007.99 1007.48 1007.10 1006.88 1007.07 1007.21 1007.31 1007.41 1007.28 1008.07 1008.23 1008.34 1008.91 1010.01 1010.38 1010.78 1011.43 1012.22 1012.88 1013.25 1013.72 1014.57 1015.18 1015.80 1016.47 1017.56 1018.58 1019.14 1019.30 1019.53
1016.41 1017.37 1017.81 1017.63 1017.42 1015.34 1014.30 1013.46 1007.29 1007.57 1007.62 1007.76 1008.42 1008.67 1008.46 1008.69 1008.39 1007.90 1007.69 1008.12 1008.35 1008.29 1008.36 1007.92 1007.83 1008.01 1008.27 1008.11 1007.92 1007.95 1008.20 1008.40 1008.58 1009.35 1009.80 1010.98 1011.76 1012.19 1012.38 1012.36 1013.38 1013.96 1014.53 1015.25 1016.14 1017.28 1018.25 1018.76 1019.11
1015.75 1016.30 1017.01 1016.48 1016.15 1014.61 1014.16 1010.71 1004.26 1007.28 1007.67 1007.93 1008.21 1008.75 1008.65 1008.51 1008.96 1009.02 1009.12 1009.42 1009.56 1009.43 1008.96 1008.21 1008.28 1008.06 1008.09 1007.83 1008.30 1008.84 1008.48 1007.83 1007.84 1008.45 1008.73 1009.44 1009.88 1010.87 1011.91 1012.25 1012.03 1012.89 1013.61 1014.35 1015.10 1015.89 1016.96 1017.86 1018.35
1015.57 1015.80 1015.28 1015.44 1015.20 1014.94 1012.37 1009.37 1005.67 1006.90 1007.88 1008.82 1009.19 1009.44 1009.76 1009.98 1010.33 1010.33 1010.24 1010.59 1010.73 1010.60 1009.81 1009.12 1008.77 1008.63 1008.42 1008.06 1008.12 1008.27 1008.45 1008.53 1008.39 1008.16 1008.96 1009.31 1009.57 1009.90 1010.69 1011.42 1012.13 1012.40 1013.14 1013.70 1014.40 1015.11 1015.84 1016.83 1017.58
1015.22 1015.47 1015.74 1016.09 1015.85 1013.99 1011.84 1010.46 1007.36 1007.02 1008.66 1009.54 1011.16 1011.79 1012.08 1012.40 1012.95 1012.82 1011.96 1011.41 1011.04 1011.06 1010.79 1010.34 1009.98 1009.25 1008.81 1008.67 1008.37 1007.87 1008.00 1007.91 1008.55 1008.15 1008.34 1008.79 1008.95 1009.40 1010.29 1010.38 1011.75 1012.03 1012.72 1013.37 1013.90 1014.66 1015.36 1016.01 1016.76
1015.51 1015.44 1016.00 1015.95 1014.99 1013.38 1011.99 1009.86 1008.49 1009.57 1010.48 1012.05 1013.62 1014.31 1014.52 1014.45 1014.38 1014.09 1014.07 1013.42 1012.86 1012.16 1011.90 1011.31 1010.70 1010.02 1009.30 1008.93 1008.44 1007.97 1007.57 1007.90 1007.39 1007.15 1007.77 1008.29 1008.56 1009.12 1009.62 1009.39 1010.42 1011.20 1011.61 1012.67 1013.44 1013.77 1014.60 1015.27 1016.15
1014.42 1014.58 1015.11 1015.38 1013.80 1012.75 1011.85 1009.89 1009.79 1010.46 1011.44 1012.24 1014.31 1015.46 1015.53 1015.84 1015.68 1014.79 1014.42 1014.36 1013.71 1012.81 1012.15 1011.96 1011.67 1011.19 1010.45 1009.61 1008.35 1007.98 1007.62 1007.92 1007.20 1006.72 1006.88 1007.33 1007.89 1008.79 1009.12 1009.20 1009.73 1010.29 1010.35 1011.48 1012.15 1012.73 1013.61 1014.17 1015.00
Wind_Speed
3 3 2 5 4 4 3 5 2 3 2 2 6 5 5 2 5 3 1 10 5 12 10 10 10 14 14 13 13 12 13 14 13 11 13 11 10 8 6 6 8 7 8 8 8 9 9 10 10
2 1 4 3 5 2 5 3 4 4 1 2 1 1 2 6 3 4 2 11 6 12 11 9 10 13 14 13 13 13 12 12 12 11 10 11 9 5 5 6 8 9 9 10 9 9 8 9 9
3 4 4 5 3 4 4 4 3 2 2 3 2 2 2 4 2 2 2 12 8 11 10 9 10 13 14 14 12 11 12 12 12 10 7 5 6 6 7 8 8 9 8 9 9 9 10 10 10
3 5 4 4 4 7 6 3 3 4 2 2 1 5 4 3 3 2 2 9 10 9 8 9 10 12 11 10 13 9 6 7 7 5 6 8 7 7 6 8 8 8 8 8 9 10 10 11 11
5 3 4 2 5 5 5 4 3 2 2 2 3 3 5 2 2 1 6 9 11 8 6 6 9 11 10 10 13 12 10 9 9 9 9 9 9 8 8 7 8 9 9 9 10 11 10 11 11
5 3 4 3 5 5 6 5 2 2 2 1 2 2 6 1 2 3 6 10 8 10 7 6 7 8 9 11 11 11 15 14 12 11 11 11 10 9 9 9 9 9 9 10 10 10 10 11 11
7 4 4 3 4 6 4 3 3 3 2 6 3 2 5 3 3 3 5 6 7 8 8 7 7 7 9 8 10 16 15 13 13 13 13 12 12 11 11 11 11 11 11 10 10 10 10 11 12
5 4 3 4 3 6 3 2 2 4 4 2 5 5 6 1 3 5 4 5 6 7 8 9 8 7 7 6 11 11 10 10 12 12 11 10 10 10 10 9 11 12 11 11 10 11 11 11 12
3 4 2 5 6 5 3 2 3 1 2 3 7 5 2 3 5 5 3 3 6 7 9 8 8 8 8 8 8 10 10 11 11 10 11 9 5 7 7 7 10 12 11 11 11 11 11 11 12
4 4 9 6 6 5 3 5 3 2 5 6 6 6 4 4 5 8 9 12 13 13 12 10 10 9 7 5 7 7 6 6 7 7 8 6 7 6 5 6 9 10 10 11 11 11 10 7 4
4 7 5 6 7 4 4 2 4 4 8 10 10 8 5 6 8 11 13 14 17 13 10 13 11 10 10 8 6 4 4 5 6 10 9 8 6 5 4 4 4 4 7 4 5 5 4 5 3
3 9 6 4 4 3 4 2 4 9 19 9 11 6 4 9 13 16 16 17 14 14 15 14 14 12 12 7 7 7 6 6 6 7 10 8 6 6 5 4 5 5 3 5 4 3 4 5 5
5 5 5 6 7 8 3 14 6 13 20 7 9 8 12 10 12 12 14 10 10 13 14 15 14 14 12 12 8 8 9 8 8 8 9 8 8 8 7 6 5 5 5 5 4 4 3 4 4
4 4 7 6 10 7 7 11 7 12 8 9 7 13 11 12 15 9 9 16 15 14 15 13 15 15 13 14 12 10 8 9 9 8 9 11 8 8 8 7 7 6 5 5 5 5 4 4 4
2 7 8 7 3 9 7 9 11 16 4 13 11 11 11 13 8 17 16 16 16 16 13 16 17 16 17 17 13 11 10 9 9 10 12 13 11 11 10 8 7 7 6 7 5 5 4 4 3
3 1 4 3 6 2 7 12 14 8 3 11 13 11 10 14 12 14 14 15 13 12 17 15 14 18 18 17 12 11 10 10 10 10 10 14 14 13 11 8 8 8 7 6 6 5 4 4 4
3 5 6 12 9 3 7 7 9 6 2 13 16 20 18 17 16 10 12 13 13 15 15 16 17 18 19 16 12 13 12 12 11 10 11 15 14 14 12 9 9 10 8 7 7 4 3 4 4
7 5 6 6 7 5 5 14 13 20 7 23 22 23 17 17 24 10 9 10 12 13 14 15 14 18 17 12 11 9 9 10 9 11 11 14 13 14 12 10 11 10 8 8 7 5 3 2 4
2 4 7 9 14 7 17 18 15 19 16 22 23 20 16 14 16 11 8 7 6 8 12 14 14 16 12 12 12 10 14 12 11 11 15 15 13 15 14 9 11 11 11 11 11 5 6 3 4
5 5 11 7 11 4 12 24 21 21 20 22 18 18 15 12 11 11 6 6 8 8 12 13 17 16 16 12 11 7 11 11 10 10 11 14 15 15 14 13 12 13 10 11 11 8 5 3 7
5 6 9 10 8 5 9 11 5 5 6 9 11 15 8 15 14 14 7 7 8 9 10 13 15 16 17 16 9 2 3 2 8 11 11 15 17 17 17 15 13 13 11 11 13 11 10 7 5
4 9 10 6 4 4 5 17 4 7 7 6 15 3 8 12 6 6 7 7 8 10 7 8 8 12 14 16 14 18 14 12 11 13 12 14 18 19 18 17 16 15 11 12 12 11 8 6 7
10 2 2 3 3 4 3 4 1 3 7 12 5 6 6 10 4 10 10 9 7 5 6 6 7 11 12 14 15 13 17 12 5 7 13 14 14 18 18 18 17 16 12 12 13 12 11 6 6
3 3 5 4 2 5 8 7 13 5 6 3 3 4 10 11 7 5 7 10 8 7 7 6 5 8 9 14 17 17 18 13 7 9 11 11 11 12 16 17 16 15 14 15 13 12 13 11 6
4 5 5 5 1 12 4 5 14 4 8 8 11 8 11 9 7 6 7 9 13 16 11 6 4 5 4 7 12 14 14 13 12 13 12 12 11 12 16 19 17 15 16 15 14 13 13 12 10
9 10 6 7 16 20 7 14 21 8 1 4 6 8 7 5 5 8 10 9 9 12 11 10 9 7 4 6 9 9 11 10 10 12 10 11 12 13 15 16 17 17 17 15 15 12 11 11 10
4 6 4 6 2 3 13 18 28 8 5 5 4 5 8 10 11 12 13 14 13 13 16 13 11 8 6 6 7 7 8 11 8 8 8 9 10 10 14 17 16 16 16 16 15 12 14 12 11
6 2 2 2 3 16 14 17 22 20 8 8 11 16 17 18 19 19 18 19 18 17 17 17 15 11 7 7 7 6 7 7 6 4 9 10 10 11 13 16 16 15 15 15 15 12 12 13 10
4 5 2 3 10 17 22 18 17 12 10 15 13 10 11 14 13 13 15 15 14 14 17 17 17 17 16 12 9 7 7 8 8 9 10 10 9 11 14 16 17 17 16 16 15 14 14 15 13
10 13 14 14 14 13 18 20 10 10 12 12 10 11 10 11 12 13 14 15 16 18 17 17 17 16 16 15 13 11 9 8 9 9 10 11 11 11 13 13 15 16 17 17 18 17 15 17 17
Wind_Direction
30 42 72 43 51 55 276 262 309 261 247 162 129 155 206 225 171 222 85 193 179 161 171 172 184 174 173 170 171 171 168 163 154 140 126 113 95 82 106 99 94 101 85 93 80 74 74 74 68
54 122 47 80 85 38 271 267 248 236 337 129 179 171 253 264 238 269 188 185 195 164 167 173 174 175 175 175 177 183 172 156 139 124 124 115 117 125 135 118 110 106 109 101 91 79 77 72 66
112 43 80 86 101 191 231 222 253 269 190 182 211 213 252 242 255 254 202 166 174 172 169 170 166 166 174 183 167 147 144 138 132 136 128 143 173 152 135 123 116 109 105 93 89 86 80 73 69
62 20 48 90 225 249 222 237 223 293 179 258 221 274 287 250 183 189 151 163 166 175 170 173 163 167 163 178 164 160 143 173 181 173 166 172 164 152 137 129 121 112 107 103 99 93 84 78 73
38 57 56 18 255 262 250 262 217 256 284 181 190 269 258 210 6 94 159 165 170 170 173 179 172 165 169 169 180 195 199 188 195 164 173 172 169 159 148 134 124 119 112 107 100 91 86 81 75
50 90 58 269 264 267 274 240 198 226 245 181 182 248 253 146 192 185 167 172 171 170 175 190 191 178 174 173 183 198 199 199 186 177 183 176 171 167 156 145 135 129 122 115 106 99 91 83 74
113 93 203 236 262 300 244 147 194 193 211 237 172 209 262 280 182 151 167 166 172 177 178 186 188 192 181 178 197 206 199 202 184 188 180 174 172 168 163 153 148 142 131 127 120 112 99 90 86
101 92 159 237 221 269 267 230 193 180 260 71 181 225 253 177 123 121 136 167 188 194 198 193 188 185 184 184 202 205 199 181 180 180 171 162 162 160 156 153 154 146 136 131 122 113 105 96 88
133 69 219 244 175 241 223 244 181 267 256 209 207 211 227 119 125 124 143 205 212 217 210 202 197 190 178 177 182 181 197 169 170 168 153 135 144 140 135 154 156 147 140 131 120 105 96 86 76
106 142 220 208 197 226 246 203 228 214 237 247 269 251 157 156 178 181 193 205 209 211 210 205 198 192 183 180 181 175 171 169 159 153 147 144 148 152 153 154 146 141 138 131 119 109 101 88 82
171 207 211 252 227 243 250 257 210 192 264 219 222 233 189 192 203 213 216 212 212 208 203 201 197 193 186 186 178 182 178 170 164 162 158 156 157 162 153 130 108 103 90 90 99 102 88 90 86
227 249 200 254 213 237 243 284 212 199 255 233 220 229 184 212 212 216 222 221 209 199 206 198 195 191 191 184 187 182 179 178 176 174 164 161 165 171 163 155 144 145 143 134 132 117 110 101 92
216 244 248 240 267 256 316 259 221 245 255 281 269 237 241 234 230 229 230 234 213 219 212 204 193 198 192 190 185 188 191 184 176 174 175 170 173 176 167 166 162 163 154 153 145 135 127 109 98
215 256 267 268 240 246 214 270 134 255 279 275 243 259 247 238 238 240 223 233 218 218 215 201 203 201 191 198 193 195 191 183 181 181 182 179 175 177 178 170 172 172 171 161 158 157 146 128 129
316 312 313 218 258 224 170 285 225 254 281 287 274 258 262 245 225 231 236 228 223 223 211 200 200 200 198 198 197 195 191 185 192 190 182 181 180 180 177 175 179 177 168 159 153 149 133 133 134
334 24 309 259 150 249 166 255 266 271 242 276 279 275 271 268 236 229 228 229 219 215 208 200 198 197 201 205 199 197 192 191 194 189 189 189 184 178 175 176 183 172 166 166 166 157 149 157 161
325 247 228 315 205 126 186 253 267 275 295 279 276 279 280 280 274 246 228 227 213 211 208 204 200 201 201 202 201 203 197 199 197 191 190 186 188 183 179 178 174 168 169 176 168 163 167 174 146
233 228 245 246 285 191 247 255 278 282 256 269 278 274 276 274 270 293 248 217 215 210 208 205 198 206 198 195 198 198 199 209 201 193 202 192 186 184 181 179 171 168 169 172 174 161 158 150 131
194 230 254 262 272 309 272 268 258 264 265 262 267 280 277 273 278 266 259 255 221 207 201 201 198 203 188 194 194 201 211 200 202 207 194 190 194 184 185 182 173 173 178 177 173 150 159 145 155
235 271 269 275 270 179 278 290 271 248 254 258 267 277 282 292 293 279 297 255 224 229 211 200 207 196 197 199 206 206 204 213 206 198 199 191 187 189 187 182 183 183 174 175 175 164 145 136 185
193 222 255 249 330 269 310 272 255 272 238 282 263 247 282 274 289 299 337 289 272 260 231 218 211 200 199 199 189 130 120 127 179 197 192 196 186 185 188 183 182 183 184 184 182 179 169 157 184
264 233 251 277 8 268 33 295 179 222 255 273 263 359 274 283 275 295 300 295 275 262 259 239 224 209 204 190 193 202 208 205 216 206 198 192 188 186 187 185 181 183 187 188 186 182 183 152 162
228 105 175 169 199 350 334 297 23 137 254 263 313 280 289 269 358 355 330 315 295 294 301 257 216 202 197 200 205 205 215 219 185 197 188 195 193 192 186 187 183 182 183 189 186 181 189 187 161
122 81 48 62 57 276 192 190 313 153 200 268 296 346 328 322 0 324 311 328 319 317 323 317 265 228 196 189 206 209 213 209 184 189 188 191 191 193 193 187 188 186 184 183 184 188 193 191 183
102 65 308 317 45 257 177 240 240 178 247 314 301 292 272 317 312 316 327 341 338 349 344 322 291 294 240 219 214 215 221 217 199 188 189 185 194 200 200 188 187 189 188 184 179 183 191 191 191
183 175 194 253 270 275 132 252 259 193 227 314 278 274 272 316 323 311 334 347 346 341 342 355 343 330 280 208 228 241 225 220 211 202 196 196 197 203 203 202 192 191 186 183 182 182 186 187 190
157 184 238 279 340 300 261 268 287 234 356 24 16 24 327 332 349 353 13 22 14 10 8 360 351 330 297 250 230 229 227 235 226 207 211 204 202 198 197 195 197 190 188 184 180 184 184 184 187
173 283 281 20 209 249 262 269 268 302 333 351 7 11 7 24 16 5 8 8 8 8 5 6 0 343 316 285 261 237 227 220 229 197 202 201 200 191 188 187 197 191 189 186 183 187 186 184 184
261 256 230 287 232 255 265 259 277 314 25 43 48 33 16 9 12 14 4 1 5 9 5 1 360 355 356 332 288 266 247 236 211 195 204 207 199 190 193 189 192 192 186 187 191 189 182 186 181
196 227 233 244 252 239 249 247 325 10 356 356 15 27 33 28 10 8 8 358 359 2 360 358 353 352 351 341 332 296 270 243 227 222 210 190 197 202 199 197 197 197 189 188 191 187 186 188 187